Flag for U.S.A. Weather past 2 weeks in Monterey, California, U.S.A.

Now
64 °F

Passing clouds.


Feels Like: 64 °F
Forecast: 59 / 66 °F
Wind: 3 mph from Southwest

Location: Monterey Peninsula Airport

Current Time: Jul 7, 2015 at 1:57:52 AM

Latest Report: Jul 7, 2015 at 12:54 AM


Visibility: 10 mi

Pressure: 30.08 "Hg

Humidity: 78%

Dew point: 57 °F

Location of MontereyLocation

Historic Weather in Monterey — Graph

°F

Monterey temperature yesterday

Maximum temperature yesterday: 71 °F (at 3:54 PM)
Minimum temperature yesterday: 60 °F (at 12:54 AM)
Average temperature yesterday: 65 °F

Past Weeks' High & Low Weather Summary

 TemperatureHumidityPressure
High77 °F (Jul 1, 1:54 PM)100% (Jul 4, 7:01 AM)30.14 "Hg (Jul 4, 7:01 AM)
Low51 °F (Jun 25, 5:54 AM)43% (Jun 25, 1:54 PM)29.85 "Hg (Jul 1, 3:57 AM)
Average62 °F77%30.01 "Hg
* Reported Jun 22 12:54 AM — Jul 7 12:54 AM, Monterey, Weather by CustomWeather, © 2015

Note: Actual official high and low records may vary slightly from our data, if they occured in-between our weather recording intervals... More about our weather records

Advertising

Monterey weather history for previous 24 hours

 ConditionsComfort  
Time TempWeatherWind HumidityBarometerVisibility
12:54 AM
Tue, Jul 7
64 °FPassing clouds.3 mph78%30.08 "Hg10 mi
11:54 PM
Mon, Jul 6
64 °FClear.3 mph78%30.09 "Hg10 mi
10:54 PM64 °FClear.5 mph75%30.09 "Hg10 mi
9:54 PM65 °FClear.7 mph73%30.09 "Hg10 mi
8:54 PM66 °FSunny.5 mph70%30.07 "Hg10 mi
7:54 PM68 °FSunny.5 mph65%30.07 "Hg10 mi
6:54 PM69 °FSunny.8 mph63%30.07 "Hg10 mi
5:54 PM71 °FSunny.9 mph57%30.06 "Hg10 mi
4:54 PM70 °FSunny.10 mph59%30.08 "Hg10 mi
3:54 PM71 °FSunny.7 mph57%30.09 "Hg10 mi
2:54 PM69 °FSunny.10 mph61%30.11 "Hg10 mi
1:54 PM68 °FSunny.10 mph63%30.11 "Hg10 mi
12:54 PM67 °FSunny.9 mph66%30.12 "Hg10 mi
11:54 AM65 °FPassing clouds.7 mph70%30.14 "Hg10 mi
10:54 AM66 °FScattered clouds.7 mph70%30.13 "Hg10 mi
9:54 AM63 °FMostly cloudy.6 mph81%30.14 "Hg10 mi
8:54 AM62 °FOvercast.3 mph83%30.14 "Hg10 mi
7:54 AM62 °FOvercast.No wind78%30.12 "Hg10 mi
6:54 AM61 °FOvercast.No wind83%30.11 "Hg10 mi
5:54 AM60 °FOvercast.No wind90%30.10 "Hg10 mi
4:54 AM60 °FOvercast.3 mph86%30.09 "Hg10 mi
3:54 AM60 °FLow clouds.No wind90%30.08 "Hg8 mi
2:54 AM60 °FFog.No wind90%30.08 "Hg5 mi
1:54 AM60 °FLow clouds.5 mph90%30.07 "Hg8 mi
Weather by CustomWeather, © 2015

See weather overviewHow to use our weather pages